Wind_Speed
6 6 6 7 8 8 9 9 10 9 9 8 8 7 7 7 6 5 5 4 4 4 4 4 5 5 6 6 6 6 5 5 5 5 5 5 5 5 5 5 5 5 5
6 6 6 7 7 8 8 9 9 9 8 8 8 7 7 7 6 5 5 4 4 4 4 4 4 5 5 5 6 5 5 4 5 5 4 4 5 5 5 5 5 5 5
7 6 6 7 7 7 7 8 8 8 8 8 8 7 7 6 6 5 5 4 4 4 4 4 4 4 4 5 5 5 4 5 5 5 5 4 4 5 5 5 5 5 5
6 6 7 7 7 7 7 7 7 7 7 7 7 7 7 6 6 5 5 5 4 4 4 3 3 4 4 4 4 4 4 4 4 5 4 4 4 4 4 4 4 4 4
6 7 7 7 7 7 7 7 7 7 7 7 7 7 6 6 6 5 5 5 5 4 4 3 3 3 3 3 3 3 4 4 4 4 4 4 4 4 3 3 4 4 4
7 7 8 8 7 7 7 6 6 6 6 6 6 6 7 6 6 6 5 5 5 4 4 4 4 4 4 3 3 3 4 3 4 4 3 3 3 3 3 3 4 4 4
9 8 8 8 8 7 6 6 6 6 5 5 6 6 6 6 6 5 5 5 4 4 4 4 4 4 4 4 3 3 3 3 3 3 3 3 3 2 3 3 3 3 3
10 10 9 9 8 7 6 6 5 5 4 4 5 5 6 6 6 5 5 5 5 4 4 4 4 5 4 4 4 4 3 3 4 4 4 3 3 3 3 3 3 3 2
11 11 10 9 8 7 6 5 5 4 4 4 4 4 5 5 5 5 4 5 4 4 4 4 4 4 4 4 4 4 4 3 3 3 4 3 3 3 3 3 2 2 2
12 11 10 9 8 7 6 5 5 4 4 3 3 3 4 4 4 4 4 4 4 4 4 4 4 4 4 4 4 4 4 3 3 3 3 3 3 3 2 2 2 1 1
12 11 11 9 8 7 7 6 5 4 4 3 3 3 4 4 4 4 4 4 4 4 4 3 3 3 3 3 3 4 3 3 3 2 2 2 2 2 2 2 1 1 1
13 12 11 9 8 8 7 6 5 4 4 3 3 3 3 3 4 4 4 3 3 3 3 3 3 2 2 3 3 3 3 2 2 2 2 2 2 2 2 1 1 1 1
14 12 11 9 8 7 6 6 5 4 3 3 2 2 2 2 2 3 3 2 2 2 2 2 2 2 2 2 2 2 2 2 3 2 2 2 1 1 1 1 2 1 1
15 13 12 11 9 7 6 6 5 4 3 2 1 1 1 1 1 2 2 2 2 2 2 2 1 1 1 1 1 1 1 2 2 2 2 1 1 1 1 1 1 2 1
16 15 13 11 10 7 6 5 5 4 3 2 1 1 1 1 1 1 1 1 2 1 1 1 1 0 1 1 1 1 2 2 2 1 1 1 1 1 1 1 2 2 2
16 15 14 12 11 8 7 5 5 5 4 2 1 1 1 2 1 1 1 2 2 1 1 1 1 1 1 1 1 1 2 2 1 2 2 2 2 2 2 2 2 2 2
17 16 15 14 12 10 8 7 6 5 5 4 1 1 2 2 2 1 2 2 2 2 2 1 1 1 1 1 1 2 2 2 2 2 2 2 2 2 3 3 3 3 4
18 16 15 14 13 12 10 8 7 6 5 5 3 1 1 2 2 2 2 2 3 3 3 2 2 1 1 2 2 2 2 3 3 3 3 3 3 3 4 4 4 5 5
17 16 15 14 13 12 11 9 7 7 5 4 3 1 0 1 2 3 3 3 3 3 4 3 3 3 3 2 2 3 3 3 3 4 4 4 4 4 4 5 6 6 6
17 16 15 14 13 12 11 11 9 7 6 4 3 2 1 1 2 3 4 4 4 4 4 4 4 4 4 4 4 4 4 4 4 4 5 5 5 5 5 6 7 7 7
17 16 16 14 13 12 11 10 10 9 7 5 4 3 2 2 2 3 3 4 4 4 4 4 5 5 5 5 5 5 5 6 5 5 5 6 6 7 7 8 8 9 9
16 16 16 15 14 12 10 9 9 9 7 7 5 4 3 2 2 3 4 4 4 4 5 5 5 6 6 6 6 7 7 7 6 7 7 7 8 9 9 10 10 11 11
15 15 15 15 14 13 11 10 9 8 7 6 5 5 4 3 3 3 4 4 5 5 5 5 6 6 7 7 8 8 8 8 8 9 9 9 9 10 11 12 12 12 13
15 14 15 14 13 12 11 10 9 8 7 6 5 5 5 4 4 4 4 5 5 5 6 6 6 7 7 8 9 9 9 10 10 10 11 11 11 12 12 13 13 14 14
14 14 14 13 13 12 12 10 9 8 8 7 6 6 5 4 3 4 4 4 5 6 6 6 6 7 8 9 9 9 10 10 11 12 12 12 13 14 14 15 15 15 15
13 13 13 13 13 12 11 11 10 9 8 7 7 6 5 4 4 5 4 5 5 6 6 7 7 8 9 9 10 11 11 12 12 13 13 14 15 15 15 16 17 17 17
Wind_Direction
60 62 69 74 76 74 73 71 69 68 67 62 60 59 59 60 61 65 74 86 89 94 91 92 93 88 91 93 96 98 97 94 99 103 105 108 106 101 96 93 92 94 98
59 65 71 75 76 75 74 72 70 70 67 63 61 58 59 60 63 70 78 84 82 88 89 84 85 86 92 98 100 96 96 100 99 101 104 103 99 95 97 95 90 96 103
58 67 74 75 77 77 75 73 71 68 65 62 59 58 60 63 66 70 75 77 80 88 88 83 85 87 94 103 99 96 95 101 100 97 97 95 90 87 89 93 100 103 110
56 66 74 76 78 77 75 73 71 67 63 60 58 58 60 62 64 70 71 73 80 85 88 85 85 87 93 96 96 94 93 95 99 97 91 88 89 89 91 95 101 107 113
60 67 72 74 76 75 73 71 70 68 63 60 59 57 57 57 58 63 70 74 79 81 82 83 80 86 91 90 87 88 90 96 98 88 90 94 90 90 92 99 103 107 111
57 65 70 70 70 71 72 70 68 67 65 61 61 60 58 57 60 61 68 73 78 80 80 80 79 88 92 91 89 87 88 93 91 85 91 93 85 85 90 103 109 106 106
56 65 68 67 65 65 68 71 70 66 64 63 62 61 58 58 58 61 64 71 78 78 76 76 80 89 93 94 94 93 88 91 86 85 89 87 79 81 89 100 103 100 100
57 62 67 67 65 65 69 70 67 63 62 62 61 55 56 58 60 66 68 71 77 77 77 82 84 86 92 94 92 90 80 84 93 84 77 74 77 82 90 105 103 92 96
55 60 62 62 63 62 65 67 64 61 64 68 67 60 57 56 62 65 69 69 75 74 77 84 87 90 92 89 86 85 84 84 82 76 70 72 79 85 92 101 97 95 101
52 55 56 58 58 57 58 63 66 64 69 78 77 68 60 58 63 67 73 69 73 73 78 88 90 87 87 88 87 85 79 75 70 62 65 72 80 77 80 100 92 94 91
47 50 51 49 50 53 56 60 65 66 71 77 84 81 69 63 64 73 76 72 73 75 78 84 88 87 85 85 85 78 67 64 60 55 62 70 74 68 70 79 72 72 72
43 44 44 43 47 51 53 58 62 63 72 77 85 84 73 69 70 80 81 74 77 80 81 83 84 87 80 78 77 65 60 57 55 44 46 58 72 62 50 44 33 29 30
41 41 42 43 44 48 51 58 59 60 74 82 86 84 82 81 79 80 88 76 85 87 87 85 83 89 69 64 61 53 52 49 49 38 44 46 64 49 39 42 40 23 352
39 39 40 41 42 43 47 50 57 59 61 74 92 109 96 97 95 87 104 91 96 103 105 100 87 79 55 33 23 43 43 23 22 25 36 35 33 27 21 22 15 7 359
37 38 39 38 37 35 36 43 47 45 39 58 94 126 137 137 132 154 147 136 130 133 152 160 167 174 35 18 5 4 359 349 355 2 358 354 344 343 339 326 324 325 331
35 36 35 33 32 32 30 34 46 43 31 25 36 126 134 163 179 177 179 183 177 188 205 223 204 210 257 312 328 343 343 334 330 339 325 318 321 323 321 315 312 311 315
33 33 31 29 29 29 31 37 47 46 42 37 54 143 150 168 183 188 191 206 216 232 240 250 202 211 229 246 288 316 326 318 307 314 308 303 300 292 298 301 300 298 297
30 30 29 28 29 28 29 32 37 42 38 35 46 110 161 190 206 202 199 219 231 242 241 233 222 210 224 244 266 289 310 311 304 304 305 300 291 284 288 293 292 296 297
27 28 26 23 25 23 25 26 27 29 32 27 27 46 107 224 216 219 219 229 239 245 243 237 233 235 238 249 269 279 289 298 294 292 293 291 285 284 285 291 291 296 296
24 25 23 19 17 20 25 27 28 28 24 21 11 352 342 288 238 226 226 240 245 247 252 249 244 249 248 254 265 278 285 286 281 283 285 284 281 282 284 287 292 292 290
21 23 21 18 14 17 24 30 30 31 31 30 24 12 333 290 265 243 242 247 247 252 254 251 248 252 253 259 265 273 278 279 279 277 279 280 280 282 284 286 288 292 291
19 20 19 17 18 17 17 24 22 22 28 27 21 9 360 352 302 259 251 249 249 250 247 247 251 255 258 263 265 268 271 276 278 277 280 279 279 282 284 287 288 287 288
16 16 15 17 18 18 16 20 19 17 18 17 16 7 352 330 322 290 263 258 255 251 246 248 255 261 263 265 267 268 269 273 277 279 279 280 283 284 284 284 286 285 286
11 12 13 14 15 15 15 15 14 11 10 11 9 1 352 330 307 296 274 266 263 258 256 258 260 263 264 266 268 270 272 274 276 280 282 283 283 284 283 282 284 285 286
8 8 10 11 13 12 12 12 12 6 3 4 360 358 356 348 318 296 281 267 265 262 263 262 265 268 267 269 273 274 278 280 279 279 281 284 284 284 283 283 283 285 284
6 5 5 7 8 9 11 10 8 3 1 357 351 350 347 334 318 299 286 278 269 264 264 266 272 274 274 275 276 278 280 280 281 283 284 285 287 286 285 285 285 285 285
Height
5885 5885 5884 5884 5884 5884 5884 5884 5885 5885 5886 5887 5887 5888 5888 5888 5889 5889 5889 5890 5890 5890 5890 5890 5890 5890 5890 5891 5891 5892 5892 5892 5892 5893 5893 5893 5893 5893 5894 5894 5894 5894 5895
5886 5886 5885 5885 5885 5885 5885 5885 5886 5886 5887 5887 5888 5888 5889 5889 5889 5890 5890 5891 5891 5891 5891 5891 5891 5891 5891 5892 5892 5893 5893 5893 5893 5893 5894 5894 5894 5894 5895 5895 5895 5895 5895
5888 5887 5886 5886 5886 5886 5886 5886 5887 5887 5888 5888 5888 5889 5889 5890 5890 5890 5891 5891 5891 5892 5892 5892 5892 5892 5892 5893 5893 5893 5894 5894 5894 5894 5895 5895 5895 5895 5895 5895 5896 5896 5896
5889 5888 5887 5887 5887 5887 5887 5887 5887 5888 5888 5889 5889 5889 5890 5890 5890 5891 5891 5892 5892 5892 5892 5893 5893 5893 5893 5894 5894 5894 5894 5895 5895 5895 5895 5896 5896 5896 5896 5896 5896 5897 5897
5889 5889 5888 5887 5887 5887 5888 5888 5888 5889 5889 5889 5889 5890 5890 5891 5891 5891 5892 5892 5893 5893 5893 5894 5894 5894 5894 5895 5895 5895 5895 5896 5896 5896 5896 5897 5897 5897 5897 5897 5897 5897 5898
5890 5889 5889 5888 5888 5888 5888 5889 5889 5889 5890 5890 5890 5890 5891 5891 5891 5892 5892 5893 5893 5894 5894 5894 5895 5895 5895 5895 5896 5896 5896 5896 5897 5897 5897 5897 5897 5897 5897 5897 5898 5898 5898
5891 5890 5889 5889 5889 5889 5889 5889 5890 5890 5890 5890 5891 5891 5891 5892 5892 5892 5893 5893 5894 5894 5895 5895 5895 5896 5896 5896 5896 5896 5897 5897 5897 5897 5898 5898 5898 5898 5898 5898 5898 5898 5898
5892 5891 5890 5890 5890 5889 5889 5890 5890 5890 5891 5891 5891 5892 5892 5892 5893 5893 5894 5894 5895 5895 5895 5896 5896 5897 5897 5897 5897 5897 5898 5898 5898 5898 5898 5898 5898 5898 5898 5898 5899 5899 5899
5893 5892 5891 5891 5891 5890 5890 5890 5891 5891 5891 5892 5892 5892 5893 5893 5893 5894 5894 5895 5895 5896 5896 5896 5897 5897 5898 5898 5898 5898 5898 5898 5898 5898 5898 5898 5898 5898 5898 5899 5899 5899 5899
5895 5894 5893 5892 5892 5891 5891 5891 5891 5891 5892 5892 5892 5893 5893 5894 5894 5895 5895 5895 5896 5896 5897 5897 5898 5898 5898 5898 5899 5899 5899 5899 5899 5899 5899 5899 5899 5899 5899 5899 5899 5899 5900
5896 5895 5894 5893 5893 5892 5892 5892 5892 5892 5892 5892 5893 5893 5894 5894 5895 5895 5896 5896 5897 5897 5897 5898 5898 5898 5899 5899 5899 5899 5899 5899 5900 5900 5900 5900 5900 5900 5900 5900 5900 5900 5900
5898 5896 5895 5895 5894 5893 5893 5892 5892 5892 5892 5893 5893 5894 5894 5895 5895 5896 5896 5897 5897 5898 5898 5898 5899 5899 5899 5900 5900 5900 5900 5900 5900 5900 5900 5900 5900 5900 5900 5900 5900 5900 5900
5899 5898 5897 5896 5895 5894 5894 5893 5893 5893 5893 5893 5894 5894 5895 5895 5896 5896 5897 5897 5898 5898 5899 5899 5899 5899 5900 5900 5900 5900 5900 5900 5900 5900 5900 5900 5900 5900 5900 5901 5900 5900 5900
5901 5899 5898 5897 5896 5895 5894 5894 5893 5893 5893 5893 5894 5894 5895 5895 5896 5896 5897 5897 5898 5898 5899 5899 5899 5900 5900 5900 5901 5901 5901 5901 5901 5900 5900 5901 5901 5901 5901 5901 5901 5901 5900
5903 5901 5899 5898 5897 5896 5895 5894 5894 5893 5893 5893 5893 5894 5895 5895 5896 5896 5897 5898 5898 5899 5899 5899 5900 5900 5900 5900 5901 5901 5901 5901 5901 5901 5901 5901 5901 5901 5901 5901 5901 5900 5900
5905 5903 5901 5899 5898 5896 5895 5895 5894 5894 5894 5893 5893 5894 5894 5895 5896 5896 5897 5897 5898 5898 5899 5899 5899 5900 5900 5900 5900 5900 5900 5901 5901 5901 5901 5900 5900 5900 5900 5900 5900 5900 5900
5906 5904 5902 5901 5899 5897 5896 5895 5895 5894 5894 5894 5894 5894 5894 5895 5896 5896 5896 5897 5897 5898 5898 5899 5899 5899 5900 5900 5900 5900 5900 5900 5900 5900 5900 5900 5900 5900 5900 5900 5900 5900 5899
5908 5906 5904 5902 5900 5899 5897 5896 5895 5895 5894 5894 5894 5894 5895 5895 5895 5896 5896 5897 5897 5897 5898 5898 5899 5899 5899 5900 5900 5900 5900 5900 5899 5900 5900 5900 5900 5899 5899 5899 5899 5899 5899
5910 5907 5905 5903 5901 5900 5898 5897 5896 5895 5895 5895 5894 5894 5894 5895 5895 5895 5896 5896 5897 5897 5897 5898 5898 5898 5899 5899 5899 5899 5899 5899 5899 5899 5899 5899 5899 5899 5899 5898 5898 5898 5898
5911 5909 5907 5905 5903 5901 5899 5898 5896 5896 5895 5895 5895 5894 5894 5895 5895 5895 5895 5896 5896 5896 5897 5897 5897 5897 5898 5898 5898 5898 5898 5898 5898 5898 5898 5898 5898 5898 5897 5897 5897 5897 5897
5913 5910 5908 5906 5904 5902 5901 5899 5898 5897 5896 5896 5895 5894 5894 5894 5894 5894 5894 5895 5895 5896 5896 5896 5896 5897 5897 5897 5897 5897 5897 5897 5897 5897 5897 5897 5897 5896 5896 5896 5896 5895 5895
5914 5912 5909 5907 5904 5903 5901 5899 5899 5898 5897 5896 5895 5895 5894 5894 5893 5893 5894 5894 5894 5895 5895 5895 5895 5895 5895 5896 5896 5896 5896 5897 5896 5896 5896 5895 5895 5895 5894 5894 5894 5893 5893
5914 5912 5910 5908 5906 5904 5902 5900 5899 5898 5897 5896 5895 5894 5894 5893 5893 5893 5893 5893 5893 5893 5894 5894 5894 5894 5894 5894 5894 5895 5895 5895 5894 5894 5894 5893 5893 5893 5892 5892 5891 5891 5890
5915 5913 5910 5908 5906 5904 5903 5901 5900 5898 5897 5896 5895 5894 5893 5892 5892 5892 5892 5892 5892 5892 5892 5892 5892 5892 5892 5892 5892 5892 5893 5892 5892 5892 5892 5891 5891 5890 5889 5889 5888 5888 5887
5915 5913 5911 5909 5907 5905 5903 5901 5900 5898 5897 5896 5895 5893 5893 5892 5891 5891 5891 5891 5891 5891 5891 5891 5891 5891 5891 5891 5890 5890 5890 5890 5890 5889 5889 5889 5888 5887 5886 5885 5885 5884 5883
5915 5913 5911 5909 5907 5905 5903 5901 5899 5898 5897 5895 5894 5893 5892 5891 5891 5890 5889 5889 5889 5889 5889 5889 5889 5889 5889 5889 5888 5888 5888 5888 5887 5887 5886 5886 5885 5884 5883 5882 5881 5880 5879